Location: *
(46.0770°N, 1.6444°E)
Time: 14:10:54
(UTC+00:00)

CZ-2C R/B - Pass Details

Date: 20 December 2019
Orbit: 785 x 870 km, 98.3° (Epoch: 17 January)

Event Time Altitude Azimuth Distance (km) Brightness Sun altitude
Rises 06:16:34 0° 124° (SE) 3,295 7.5 -12.4°
Reaches altitude 10° 06:19:23 10° 109° (ESE) 2,359 6.6 -12.0°
Maximum altitude 06:23:14 22° 61° (ENE) 1,693 4.8 -11.3°
Drops below altitude 10° 06:27:04 10° 13° (NNE) 2,355 4.9 -10.7°
Sets 06:29:52 0° 358° (N) 3,288 5.5 -10.3°
